Time,TemperatureF,DewpointF,PressureIn,WindDirection,WindDirectionDegrees,WindSpeedMPH,WindSpeedGustMPH,Humidity,HourlyPrecipIn,Conditions,Clouds,dailyrainin,SoftwareType,DateUTC
2015-01-24 00:01:00,31.8,20.3,30.91,North,0,0.0,0.0,62,-99.99,,,-99.99,meteobridge,2015-01-24 08:01:00,
2015-01-24 00:06:00,31.6,20.1,30.91,North,0,0.0,0.0,62,-99.99,,,-99.99,meteobridge,2015-01-24 08:06:00,
2015-01-24 00:11:00,31.6,20.5,30.91,North,0,0.0,0.0,63,-99.99,,,-99.99,meteobridge,2015-01-24 08:11:00,
2015-01-24 00:17:00,31.5,20.3,30.91,North,0,0.0,0.0,63,-99.99,,,-99.99,meteobridge,2015-01-24 08:17:00,
2015-01-24 00:22:00,31.5,20.3,30.91,North,0,0.9,2.0,63,-99.99,,,-99.99,meteobridge,2015-01-24 08:22:00,
2015-01-24 00:27:00,31.5,20.7,30.91,North,0,0.0,0.0,64,-99.99,,,-99.99,meteobridge,2015-01-24 08:27:00,
2015-01-24 00:32:00,31.3,20.5,30.91,North,0,0.9,2.9,64,-99.99,,,-99.99,meteobridge,2015-01-24 08:32:00,
2015-01-24 00:37:00,31.1,20.3,30.89,North,0,2.0,2.0,64,-99.99,,,-99.99,meteobridge,2015-01-24 08:37:00,
2015-01-24 00:42:00,31.3,20.5,30.89,North,0,0.0,0.9,64,-99.99,,,-99.99,meteobridge,2015-01-24 08:42:00,
2015-01-24 00:48:00,30.7,19.9,30.89,North,0,0.0,0.9,64,-99.99,,,-99.99,meteobridge,2015-01-24 08:48:00,
2015-01-24 00:53:00,30.6,19.8,30.90,North,0,0.0,0.0,64,-99.99,,,-99.99,meteobridge,2015-01-24 08:53:00,
2015-01-24 00:59:00,30.6,20.1,30.90,North,0,0.0,0.0,65,-99.99,,,-99.99,meteobridge,2015-01-24 08:59:00,
2015-01-24 01:04:00,30.6,20.1,30.90,North,0,0.0,0.0,65,-99.99,,,-99.99,meteobridge,2015-01-24 09:04:00,
2015-01-24 01:09:00,30.4,19.9,30.91,North,0,2.0,2.0,65,-99.99,,,-99.99,meteobridge,2015-01-24 09:09:00,
2015-01-24 01:14:00,30.4,20.3,30.91,North,0,0.0,0.0,66,-99.99,,,-99.99,meteobridge,2015-01-24 09:14:00,
2015-01-24 01:19:00,30.4,20.3,30.91,North,0,0.0,0.0,66,-99.99,,,-99.99,meteobridge,2015-01-24 09:19:00,
2015-01-24 01:25:00,30.4,20.3,30.91,North,0,0.0,0.0,66,-99.99,,,-99.99,meteobridge,2015-01-24 09:25:00,
2015-01-24 01:30:00,30.2,20.3,30.91,North,0,0.0,0.0,66,-99.99,,,-99.99,meteobridge,2015-01-24 09:30:00,
2015-01-24 01:35:00,30.0,20.1,30.91,North,0,2.0,2.0,66,-99.99,,,-99.99,meteobridge,2015-01-24 09:35:00,
2015-01-24 01:41:00,30.0,20.5,30.90,North,0,0.0,0.9,67,-99.99,,,-99.99,meteobridge,2015-01-24 09:41:00,
2015-01-24 01:46:00,29.8,19.9,30.90,North,0,0.0,0.0,66,-99.99,,,-99.99,meteobridge,2015-01-24 09:46:00,
2015-01-24 01:51:00,29.8,19.9,30.90,North,0,0.0,0.0,66,-99.99,,,-99.99,meteobridge,2015-01-24 09:51:00,
2015-01-24 01:56:00,29.8,19.9,30.91,North,0,0.0,0.9,66,-99.99,,,-99.99,meteobridge,2015-01-24 09:56:00,
2015-01-24 02:01:00,29.8,19.9,30.91,North,0,0.0,0.0,66,-99.99,,,-99.99,meteobridge,2015-01-24 10:01:00,
2015-01-24 02:06:00,29.8,19.9,30.91,North,0,0.0,0.0,66,-99.99,,,-99.99,meteobridge,2015-01-24 10:06:00,
2015-01-24 02:11:00,29.7,20.1,30.91,North,0,0.0,0.9,67,-99.99,,,-99.99,meteobridge,2015-01-24 10:11:00,
2015-01-24 02:16:00,29.7,20.1,30.91,North,0,0.0,0.0,67,-99.99,,,-99.99,meteobridge,2015-01-24 10:16:00,
2015-01-24 02:21:00,29.7,20.1,30.91,North,0,0.0,0.0,67,-99.99,,,-99.99,meteobridge,2015-01-24 10:21:00,
2015-01-24 02:27:00,29.5,20.3,30.91,North,0,0.0,0.0,68,-99.99,,,-99.99,meteobridge,2015-01-24 10:27:00,
2015-01-24 02:32:00,29.3,20.1,30.91,North,0,0.0,0.0,68,-99.99,,,-99.99,meteobridge,2015-01-24 10:32:00,
2015-01-24 02:37:00,29.1,19.9,30.93,North,0,0.0,0.0,68,-99.99,,,-99.99,meteobridge,2015-01-24 10:37:00,
2015-01-24 02:42:00,29.1,19.9,30.93,North,0,0.0,0.0,68,-99.99,,,-99.99,meteobridge,2015-01-24 10:42:00,
2015-01-24 02:47:00,28.9,20.1,30.93,North,0,0.0,2.0,69,-99.99,,,-99.99,meteobridge,2015-01-24 10:47:00,
2015-01-24 02:53:00,28.8,19.6,30.92,North,0,0.0,0.0,68,-99.99,,,-99.99,meteobridge,2015-01-24 10:53:00,
2015-01-24 02:58:00,28.8,19.9,30.92,North,0,0.0,2.0,69,-99.99,,,-99.99,meteobridge,2015-01-24 10:58:00,
2015-01-24 03:03:00,28.8,19.9,30.92,North,0,0.0,2.0,69,-99.99,,,-99.99,meteobridge,2015-01-24 11:03:00,
2015-01-24 03:08:00,28.8,19.9,30.92,North,0,0.0,0.0,69,-99.99,,,-99.99,meteobridge,2015-01-24 11:08:00,
2015-01-24 03:13:00,28.6,19.8,30.92,North,0,0.0,0.0,69,-99.99,,,-99.99,meteobridge,2015-01-24 11:13:00,
2015-01-24 03:19:00,28.6,19.8,30.92,North,0,0.0,0.0,69,-99.99,,,-99.99,meteobridge,2015-01-24 11:19:00,
2015-01-24 03:24:00,28.4,19.6,30.93,North,0,0.0,0.0,69,-99.99,,,-99.99,meteobridge,2015-01-24 11:24:00,
2015-01-24 03:29:00,28.4,19.6,30.93,North,0,0.0,0.0,69,-99.99,,,-99.99,meteobridge,2015-01-24 11:29:00,
2015-01-24 03:34:00,28.2,19.4,30.93,North,0,0.0,0.0,69,-99.99,,,-99.99,meteobridge,2015-01-24 11:34:00,
2015-01-24 03:40:00,28.0,19.6,30.92,North,0,0.0,0.0,70,-99.99,,,-99.99,meteobridge,2015-01-24 11:40:00,
2015-01-24 03:45:00,28.0,19.6,30.92,North,0,0.0,0.0,70,-99.99,,,-99.99,meteobridge,2015-01-24 11:45:00,
2015-01-24 03:50:00,28.0,19.6,30.92,North,0,0.0,0.0,70,-99.99,,,-99.99,meteobridge,2015-01-24 11:50:00,
2015-01-24 03:55:00,28.0,19.6,30.90,North,0,0.0,0.0,70,-99.99,,,-99.99,meteobridge,2015-01-24 11:55:00,
2015-01-24 04:00:00,27.9,19.4,30.90,North,0,0.0,0.0,70,-99.99,,,-99.99,meteobridge,2015-01-24 12:00:00,
2015-01-24 04:05:00,27.7,19.6,30.90,North,0,0.9,2.0,71,-99.99,,,-99.99,meteobridge,2015-01-24 12:05:00,
2015-01-24 04:10:00,27.9,19.8,30.88,North,0,0.0,2.0,71,-99.99,,,-99.99,meteobridge,2015-01-24 12:10:00,
2015-01-24 04:16:00,27.7,19.6,30.88,North,0,0.0,0.0,71,-99.99,,,-99.99,meteobridge,2015-01-24 12:16:00,
2015-01-24 04:21:00,27.7,19.6,30.88,North,0,0.0,0.0,71,-99.99,,,-99.99,meteobridge,2015-01-24 12:21:00,
2015-01-24 04:26:00,27.5,19.4,30.87,North,0,0.0,0.0,71,-99.99,,,-99.99,meteobridge,2015-01-24 12:26:00,
2015-01-24 04:32:00,27.3,19.2,30.87,North,0,0.0,0.0,71,-99.99,,,-99.99,meteobridge,2015-01-24 12:32:00,
2015-01-24 04:37:00,27.3,19.2,30.87,North,0,0.0,0.0,71,-99.99,,,-99.99,meteobridge,2015-01-24 12:37:00,
2015-01-24 04:42:00,27.1,19.4,30.90,North,0,0.0,0.9,72,-99.99,,,-99.99,meteobridge,2015-01-24 12:42:00,
2015-01-24 04:47:00,27.1,19.4,30.90,North,0,0.9,0.9,72,-99.99,,,-99.99,meteobridge,2015-01-24 12:47:00,
2015-01-24 04:52:00,27.3,19.6,30.90,North,0,0.0,0.9,72,-99.99,,,-99.99,meteobridge,2015-01-24 12:52:00,
2015-01-24 04:58:00,27.3,19.6,30.90,North,0,0.0,0.0,72,-99.99,,,-99.99,meteobridge,2015-01-24 12:58:00,
2015-01-24 05:03:00,27.1,19.4,30.90,North,0,0.0,0.0,72,-99.99,,,-99.99,meteobridge,2015-01-24 13:03:00,
2015-01-24 05:08:00,27.1,19.4,30.89,North,0,0.0,0.0,72,-99.99,,,-99.99,meteobridge,2015-01-24 13:08:00,
2015-01-24 05:13:00,27.1,19.6,30.89,North,0,0.0,0.0,73,-99.99,,,-99.99,meteobridge,2015-01-24 13:13:00,
2015-01-24 05:18:00,27.0,19.4,30.89,North,0,0.0,0.9,73,-99.99,,,-99.99,meteobridge,2015-01-24 13:18:00,
2015-01-24 05:23:00,27.0,19.4,30.91,North,0,0.0,0.0,73,-99.99,,,-99.99,meteobridge,2015-01-24 13:23:00,
2015-01-24 05:28:00,26.8,19.2,30.91,North,0,0.0,0.0,73,-99.99,,,-99.99,meteobridge,2015-01-24 13:28:00,
2015-01-24 05:33:00,26.8,19.2,30.91,North,0,0.0,0.0,73,-99.99,,,-99.99,meteobridge,2015-01-24 13:33:00,
2015-01-24 05:38:00,26.6,19.0,30.93,North,0,0.9,4.0,73,-99.99,,,-99.99,meteobridge,2015-01-24 13:38:00,
2015-01-24 05:43:00,26.8,19.6,30.93,North,0,0.9,2.0,74,-99.99,,,-99.99,meteobridge,2015-01-24 13:43:00,
2015-01-24 05:48:00,26.6,19.0,30.93,North,0,0.0,0.9,73,-99.99,,,-99.99,meteobridge,2015-01-24 13:48:00,
2015-01-24 05:54:00,26.6,19.0,30.95,North,0,0.0,0.0,73,-99.99,,,-99.99,meteobridge,2015-01-24 13:54:00,
2015-01-24 05:59:00,26.4,18.9,30.95,North,0,2.9,2.9,73,-99.99,,,-99.99,meteobridge,2015-01-24 13:59:00,
2015-01-24 06:04:00,26.6,19.4,30.95,North,0,0.9,4.9,74,-99.99,,,-99.99,meteobridge,2015-01-24 14:04:00,
2015-01-24 06:09:00,27.0,19.4,30.96,NNW,339,2.0,2.9,73,-99.99,,,-99.99,meteobridge,2015-01-24 14:09:00,
2015-01-24 06:14:00,27.0,19.4,30.96,NNW,342,0.0,0.0,73,-99.99,,,-99.99,meteobridge,2015-01-24 14:14:00,
2015-01-24 06:19:00,27.0,19.4,30.96,North,0,0.0,2.0,73,-99.99,,,-99.99,meteobridge,2015-01-24 14:19:00,
2015-01-24 06:24:00,27.0,19.4,30.98,North,0,0.0,0.9,73,-99.99,,,-99.99,meteobridge,2015-01-24 14:24:00,
2015-01-24 06:29:00,26.8,19.2,30.98,NNW,333,0.0,2.9,73,-99.99,,,-99.99,meteobridge,2015-01-24 14:29:00,
2015-01-24 06:34:00,26.8,19.2,30.98,NNW,333,0.0,0.9,73,-99.99,,,-99.99,meteobridge,2015-01-24 14:34:00,
2015-01-24 06:39:00,26.6,19.0,31.01,North,0,0.9,2.9,73,-99.99,,,-99.99,meteobridge,2015-01-24 14:39:00,
2015-01-24 06:44:00,26.8,19.6,31.01,North,0,0.9,4.0,74,-99.99,,,-99.99,meteobridge,2015-01-24 14:44:00,
2015-01-24 06:49:00,26.6,19.0,31.01,North,0,0.9,2.9,73,-99.99,,,-99.99,meteobridge,2015-01-24 14:49:00,
2015-01-24 06:55:00,26.8,19.6,31.03,North,0,0.0,2.0,74,-99.99,,,-99.99,meteobridge,2015-01-24 14:55:00,
2015-01-24 07:00:00,26.8,19.6,31.03,North,0,0.0,0.0,74,-99.99,,,-99.99,meteobridge,2015-01-24 15:00:00,
2015-01-24 07:05:00,26.8,19.6,31.03,North,0,0.0,0.0,74,-99.99,,,-99.99,meteobridge,2015-01-24 15:05:00,
2015-01-24 07:10:00,26.8,19.6,31.02,North,0,0.9,0.9,74,-99.99,,,-99.99,meteobridge,2015-01-24 15:10:00,
2015-01-24 07:16:00,26.8,19.2,31.02,North,0,0.0,0.0,73,-99.99,,,-99.99,meteobridge,2015-01-24 15:16:00,
2015-01-24 07:21:00,26.8,19.2,31.02,North,0,2.9,2.9,73,-99.99,,,-99.99,meteobridge,2015-01-24 15:21:00,
2015-01-24 07:26:00,27.0,19.4,31.02,WSW,241,0.9,2.9,73,-99.99,,,-99.99,meteobridge,2015-01-24 15:26:00,
2015-01-24 07:31:00,27.1,19.6,31.02,North,0,0.0,0.0,73,-99.99,,,-99.99,meteobridge,2015-01-24 15:31:00,
2015-01-24 07:36:00,27.1,19.9,31.02,North,0,2.0,2.0,74,-99.99,,,-99.99,meteobridge,2015-01-24 15:36:00,
2015-01-24 07:41:00,27.5,19.9,31.02,North,0,0.9,2.0,73,-99.99,,,-99.99,meteobridge,2015-01-24 15:41:00,
2015-01-24 07:46:00,28.0,20.5,31.02,North,0,0.9,4.9,73,-99.99,,,-99.99,meteobridge,2015-01-24 15:46:00,
2015-01-24 07:51:00,28.0,20.1,31.02,North,0,2.0,2.9,72,-99.99,,,-99.99,meteobridge,2015-01-24 15:51:00,
2015-01-24 07:56:00,28.2,20.3,31.01,NNW,332,2.0,2.0,72,-99.99,,,-99.99,meteobridge,2015-01-24 15:56:00,
2015-01-24 08:01:00,28.4,20.5,31.01,West,268,0.0,0.0,72,-99.99,,,-99.99,meteobridge,2015-01-24 16:01:00,
2015-01-24 08:06:00,28.8,20.8,31.01,NNW,340,0.0,0.0,72,-99.99,,,-99.99,meteobridge,2015-01-24 16:06:00,
2015-01-24 08:12:00,28.8,20.5,30.99,North,0,0.0,0.0,71,-99.99,,,-99.99,meteobridge,2015-01-24 16:12:00,
2015-01-24 08:17:00,29.1,20.8,30.99,North,0,0.0,2.0,71,-99.99,,,-99.99,meteobridge,2015-01-24 16:17:00,
2015-01-24 08:22:00,29.5,20.8,30.99,North,0,0.0,0.0,70,-99.99,,,-99.99,meteobridge,2015-01-24 16:22:00,
2015-01-24 08:27:00,29.7,21.0,30.99,North,0,0.0,0.0,70,-99.99,,,-99.99,meteobridge,2015-01-24 16:27:00,
2015-01-24 08:32:00,30.2,21.6,30.99,North,0,2.9,2.9,70,-99.99,,,-99.99,meteobridge,2015-01-24 16:32:00,
2015-01-24 08:37:00,30.7,21.4,30.98,North,0,0.9,2.0,68,-99.99,,,-99.99,meteobridge,2015-01-24 16:37:00,
2015-01-24 08:42:00,31.3,21.9,30.98,North,0,2.0,2.0,68,-99.99,,,-99.99,meteobridge,2015-01-24 16:42:00,
2015-01-24 08:48:00,31.8,22.1,30.98,North,0,2.0,2.9,67,-99.99,,,-99.99,meteobridge,2015-01-24 16:48:00,
2015-01-24 08:53:00,32.2,22.1,30.96,North,0,0.0,0.0,66,-99.99,,,-99.99,meteobridge,2015-01-24 16:53:00,
2015-01-24 08:58:00,32.7,22.3,30.96,North,0,0.9,0.9,65,-99.99,,,-99.99,meteobridge,2015-01-24 16:58:00,
2015-01-24 09:03:00,33.4,22.6,30.96,North,0,0.0,0.0,64,-99.99,,,-99.99,meteobridge,2015-01-24 17:03:00,
2015-01-24 09:08:00,34.2,22.8,30.95,North,0,0.0,0.0,63,-99.99,,,-99.99,meteobridge,2015-01-24 17:08:00,
2015-01-24 09:14:00,34.9,23.2,30.95,North,0,0.9,2.0,62,-99.99,,,-99.99,meteobridge,2015-01-24 17:14:00,
2015-01-24 09:19:00,35.2,22.8,30.95,North,0,0.0,0.0,60,-99.99,,,-99.99,meteobridge,2015-01-24 17:19:00,
2015-01-24 09:24:00,36.0,23.0,30.93,North,0,0.9,0.9,59,-99.99,,,-99.99,meteobridge,2015-01-24 17:24:00,
2015-01-24 09:29:00,36.7,23.4,30.93,North,0,0.9,2.0,58,-99.99,,,-99.99,meteobridge,2015-01-24 17:29:00,
2015-01-24 09:34:00,37.0,23.2,30.93,North,0,0.0,0.0,57,-99.99,,,-99.99,meteobridge,2015-01-24 17:34:00,
2015-01-24 09:39:00,37.6,23.4,30.94,North,0,0.0,2.0,56,-99.99,,,-99.99,meteobridge,2015-01-24 17:39:00,
2015-01-24 09:44:00,38.1,23.9,30.94,NNW,329,0.9,2.0,56,-99.99,,,-99.99,meteobridge,2015-01-24 17:44:00,
2015-01-24 09:49:00,38.7,23.9,30.94,West,268,0.9,2.0,55,-99.99,,,-99.99,meteobridge,2015-01-24 17:49:00,
2015-01-24 09:54:00,39.4,23.7,30.93,SE,134,0.0,6.0,53,-99.99,,,-99.99,meteobridge,2015-01-24 17:54:00,
2015-01-24 09:59:00,39.7,24.1,30.93,ENE,78,2.0,2.0,53,-99.99,,,-99.99,meteobridge,2015-01-24 17:59:00,
2015-01-24 10:04:00,40.3,23.2,30.93,SSW,202,0.0,2.0,50,-99.99,,,-99.99,meteobridge,2015-01-24 18:04:00,
2015-01-24 10:09:00,40.6,23.0,30.91,North,0,0.9,2.0,49,-99.99,,,-99.99,meteobridge,2015-01-24 18:09:00,
2015-01-24 10:14:00,41.2,23.0,30.91,North,357,0.9,0.9,48,-99.99,,,-99.99,meteobridge,2015-01-24 18:14:00,
2015-01-24 10:19:00,41.5,23.4,30.91,North,0,2.0,4.9,48,-99.99,,,-99.99,meteobridge,2015-01-24 18:19:00,
2015-01-24 10:25:00,41.7,23.5,30.92,North,0,0.0,2.9,48,-99.99,,,-99.99,meteobridge,2015-01-24 18:25:00,
2015-01-24 10:30:00,42.3,23.0,30.92,North,0,0.0,2.0,46,-99.99,,,-99.99,meteobridge,2015-01-24 18:30:00,
2015-01-24 10:35:00,42.8,23.0,30.92,NNW,340,0.9,4.0,45,-99.99,,,-99.99,meteobridge,2015-01-24 18:35:00,
2015-01-24 10:40:00,43.0,22.6,30.91,North,0,4.0,4.9,44,-99.99,,,-99.99,meteobridge,2015-01-24 18:40:00,
2015-01-24 10:45:00,43.2,23.2,30.91,North,0,0.0,2.0,45,-99.99,,,-99.99,meteobridge,2015-01-24 18:45:00,
2015-01-24 10:50:00,43.5,23.0,30.91,NNW,335,2.0,2.9,44,-99.99,,,-99.99,meteobridge,2015-01-24 18:50:00,
2015-01-24 10:55:00,43.9,22.8,30.90,North,0,4.0,4.0,43,-99.99,,,-99.99,meteobridge,2015-01-24 18:55:00,
2015-01-24 11:00:00,44.2,23.2,30.90,North,0,0.0,0.9,43,-99.99,,,-99.99,meteobridge,2015-01-24 19:00:00,
2015-01-24 11:05:00,44.8,23.7,30.90,North,0,0.9,4.0,43,-99.99,,,-99.99,meteobridge,2015-01-24 19:05:00,
2015-01-24 11:10:00,45.0,23.7,30.88,NNW,328,0.9,2.9,43,-99.99,,,-99.99,meteobridge,2015-01-24 19:10:00,
2015-01-24 11:15:00,45.3,23.5,30.88,NNW,332,0.9,2.0,42,-99.99,,,-99.99,meteobridge,2015-01-24 19:15:00,
2015-01-24 11:20:00,45.7,23.9,30.88,North,0,2.0,2.0,42,-99.99,,,-99.99,meteobridge,2015-01-24 19:20:00,
2015-01-24 11:25:00,46.0,23.7,30.87,NW,319,0.9,2.0,41,-99.99,,,-99.99,meteobridge,2015-01-24 19:25:00,
2015-01-24 11:30:00,46.4,23.9,30.87,North,350,2.9,4.0,41,-99.99,,,-99.99,meteobridge,2015-01-24 19:30:00,
2015-01-24 11:35:00,46.6,24.1,30.87,NNW,329,0.9,4.9,41,-99.99,,,-99.99,meteobridge,2015-01-24 19:35:00,
2015-01-24 11:40:00,46.8,24.3,30.87,NNW,339,0.0,2.9,41,-99.99,,,-99.99,meteobridge,2015-01-24 19:40:00,
2015-01-24 11:46:00,46.9,23.9,30.87,North,356,2.0,4.9,40,-99.99,,,-99.99,meteobridge,2015-01-24 19:46:00,
2015-01-24 11:51:00,47.1,24.1,30.87,NW,319,0.0,6.9,40,-99.99,,,-99.99,meteobridge,2015-01-24 19:51:00,
2015-01-24 11:56:00,47.7,24.4,30.86,North,0,4.9,4.9,40,-99.99,,,-99.99,meteobridge,2015-01-24 19:56:00,
2015-01-24 12:01:00,47.8,24.6,30.86,North,0,0.0,2.9,40,-99.99,,,-99.99,meteobridge,2015-01-24 20:01:00,
2015-01-24 12:06:00,48.2,25.0,30.86,North,0,0.0,2.9,40,-99.99,,,-99.99,meteobridge,2015-01-24 20:06:00,
2015-01-24 12:11:00,48.6,24.8,30.87,North,0,0.9,0.9,39,-99.99,,,-99.99,meteobridge,2015-01-24 20:11:00,
2015-01-24 12:16:00,48.9,24.4,30.87,WNW,294,0.9,0.9,38,-99.99,,,-99.99,meteobridge,2015-01-24 20:16:00,
2015-01-24 12:21:00,49.1,24.6,30.87,NNW,328,0.9,2.9,38,-99.99,,,-99.99,meteobridge,2015-01-24 20:21:00,
2015-01-24 12:26:00,49.5,25.0,30.84,North,0,2.9,2.9,38,-99.99,,,-99.99,meteobridge,2015-01-24 20:26:00,
2015-01-24 12:31:00,49.5,25.0,30.84,North,0,2.9,6.0,38,-99.99,,,-99.99,meteobridge,2015-01-24 20:31:00,
2015-01-24 12:36:00,49.8,25.2,30.84,North,0,2.0,6.0,38,-99.99,,,-99.99,meteobridge,2015-01-24 20:36:00,
2015-01-24 12:41:00,50.0,25.3,30.82,North,0,4.9,6.0,38,-99.99,,,-99.99,meteobridge,2015-01-24 20:41:00,
2015-01-24 12:46:00,50.4,25.0,30.82,North,0,2.0,10.1,37,-99.99,,,-99.99,meteobridge,2015-01-24 20:46:00,
2015-01-24 12:51:00,50.4,25.0,30.82,North,352,2.0,11.0,37,-99.99,,,-99.99,meteobridge,2015-01-24 20:51:00,
2015-01-24 12:56:00,50.5,25.2,30.81,North,0,8.1,8.1,37,-99.99,,,-99.99,meteobridge,2015-01-24 20:56:00,
2015-01-24 13:01:00,50.9,24.8,30.81,North,359,8.1,10.1,36,-99.99,,,-99.99,meteobridge,2015-01-24 21:01:00,
2015-01-24 13:07:00,51.1,25.7,30.81,NNW,342,2.9,6.9,37,-99.99,,,-99.99,meteobridge,2015-01-24 21:07:00,
2015-01-24 13:12:00,51.3,25.2,30.81,North,0,6.0,12.1,36,-99.99,,,-99.99,meteobridge,2015-01-24 21:12:00,
2015-01-24 13:17:00,51.3,25.9,30.81,North,0,0.9,8.1,37,-99.99,,,-99.99,meteobridge,2015-01-24 21:17:00,
2015-01-24 13:22:00,51.4,24.6,30.81,NNW,346,2.0,6.9,35,-99.99,,,-99.99,meteobridge,2015-01-24 21:22:00,
2015-01-24 13:27:00,51.4,25.3,30.80,North,0,6.0,6.9,36,-99.99,,,-99.99,meteobridge,2015-01-24 21:27:00,
2015-01-24 13:32:00,51.6,25.5,30.80,North,0,2.9,4.9,36,-99.99,,,-99.99,meteobridge,2015-01-24 21:32:00,
2015-01-24 13:37:00,51.8,25.0,30.80,North,0,2.0,6.0,35,-99.99,,,-99.99,meteobridge,2015-01-24 21:37:00,
2015-01-24 13:42:00,52.0,25.2,30.79,North,0,4.0,6.9,35,-99.99,,,-99.99,meteobridge,2015-01-24 21:42:00,
2015-01-24 13:47:00,52.0,25.2,30.79,North,0,4.9,6.0,35,-99.99,,,-99.99,meteobridge,2015-01-24 21:47:00,
2015-01-24 13:52:00,52.0,25.2,30.79,NNW,342,2.0,6.0,35,-99.99,,,-99.99,meteobridge,2015-01-24 21:52:00,
2015-01-24 13:57:00,52.0,25.2,30.79,North,0,4.0,6.0,35,-99.99,,,-99.99,meteobridge,2015-01-24 21:57:00,
2015-01-24 14:02:00,52.2,25.3,30.79,North,0,2.9,6.9,35,-99.99,,,-99.99,meteobridge,2015-01-24 22:02:00,
2015-01-24 14:07:00,52.2,24.6,30.78,North,0,2.0,6.0,34,-99.99,,,-99.99,meteobridge,2015-01-24 22:07:00,
2015-01-24 14:12:00,52.2,25.3,30.78,North,0,2.9,8.1,35,-99.99,,,-99.99,meteobridge,2015-01-24 22:12:00,
2015-01-24 14:17:00,52.2,24.6,30.78,North,0,4.9,6.9,34,-99.99,,,-99.99,meteobridge,2015-01-24 22:17:00,
2015-01-24 14:22:00,52.3,25.5,30.77,North,359,2.0,2.9,35,-99.99,,,-99.99,meteobridge,2015-01-24 22:22:00,
2015-01-24 14:27:00,52.3,24.8,30.77,North,359,2.0,4.9,34,-99.99,,,-99.99,meteobridge,2015-01-24 22:27:00,
2015-01-24 14:32:00,52.5,25.0,30.77,North,0,4.9,6.9,34,-99.99,,,-99.99,meteobridge,2015-01-24 22:32:00,
2015-01-24 14:37:00,52.5,25.0,30.78,North,359,0.9,6.9,34,-99.99,,,-99.99,meteobridge,2015-01-24 22:37:00,
2015-01-24 14:42:00,52.9,25.3,30.78,ESE,113,4.0,6.0,34,-99.99,,,-99.99,meteobridge,2015-01-24 22:42:00,
2015-01-24 14:47:00,52.9,25.3,30.78,North,0,6.9,6.9,34,-99.99,,,-99.99,meteobridge,2015-01-24 22:47:00,
2015-01-24 14:52:00,52.9,25.3,30.78,North,0,2.0,8.1,34,-99.99,,,-99.99,meteobridge,2015-01-24 22:52:00,
2015-01-24 14:57:00,53.1,25.3,30.78,North,0,6.0,12.1,34,-99.99,,,-99.99,meteobridge,2015-01-24 22:57:00,
2015-01-24 15:02:00,53.2,24.8,30.78,North,0,6.0,11.0,33,-99.99,,,-99.99,meteobridge,2015-01-24 23:02:00,
2015-01-24 15:07:00,53.1,23.9,30.78,North,359,4.0,10.1,32,-99.99,,,-99.99,meteobridge,2015-01-24 23:07:00,
2015-01-24 15:12:00,53.2,24.8,30.78,WNW,292,4.9,10.1,33,-99.99,,,-99.99,meteobridge,2015-01-24 23:12:00,
2015-01-24 15:17:00,53.2,24.8,30.78,North,0,4.9,11.0,33,-99.99,,,-99.99,meteobridge,2015-01-24 23:17:00,
2015-01-24 15:22:00,53.1,24.8,30.77,North,0,4.0,10.1,33,-99.99,,,-99.99,meteobridge,2015-01-24 23:22:00,
2015-01-24 15:27:00,53.2,24.1,30.77,North,0,10.1,11.0,32,-99.99,,,-99.99,meteobridge,2015-01-24 23:27:00,
2015-01-24 15:32:00,53.1,23.9,30.77,North,349,4.9,10.1,32,-99.99,,,-99.99,meteobridge,2015-01-24 23:32:00,
2015-01-24 15:37:00,53.2,24.1,30.77,North,0,4.9,8.1,32,-99.99,,,-99.99,meteobridge,2015-01-24 23:37:00,
2015-01-24 15:42:00,52.9,23.9,30.77,WNW,301,4.9,6.9,32,-99.99,,,-99.99,meteobridge,2015-01-24 23:42:00,
2015-01-24 15:47:00,52.9,23.9,30.77,WNW,295,2.0,11.0,32,-99.99,,,-99.99,meteobridge,2015-01-24 23:47:00,
2015-01-24 15:52:00,53.1,23.9,30.78,North,0,11.0,11.0,32,-99.99,,,-99.99,meteobridge,2015-01-24 23:52:00,
2015-01-24 15:57:00,52.9,23.0,30.78,NW,304,6.0,12.1,31,-99.99,,,-99.99,meteobridge,2015-01-24 23:57:00,
2015-01-24 16:03:00,52.9,23.9,30.78,North,0,4.0,8.1,32,-99.99,,,-99.99,meteobridge,2015-01-25 00:03:00,
2015-01-24 16:08:00,52.5,22.8,30.79,North,0,4.0,8.1,31,-99.99,,,-99.99,meteobridge,2015-01-25 00:08:00,
2015-01-24 16:13:00,52.5,22.8,30.79,North,0,4.9,8.1,31,-99.99,,,-99.99,meteobridge,2015-01-25 00:13:00,
2015-01-24 16:18:00,52.3,22.6,30.79,North,356,4.0,4.9,31,-99.99,,,-99.99,meteobridge,2015-01-25 00:18:00,
2015-01-24 16:23:00,52.2,22.5,30.78,North,0,6.0,6.9,31,-99.99,,,-99.99,meteobridge,2015-01-25 00:23:00,
2015-01-24 16:28:00,51.8,22.1,30.78,North,0,0.9,2.0,31,-99.99,,,-99.99,meteobridge,2015-01-25 00:28:00,
2015-01-24 16:33:00,51.6,22.6,30.78,North,356,2.0,6.9,32,-99.99,,,-99.99,meteobridge,2015-01-25 00:33:00,
2015-01-24 16:38:00,51.1,22.3,30.80,North,0,0.9,2.9,32,-99.99,,,-99.99,meteobridge,2015-01-25 00:38:00,
2015-01-24 16:43:00,50.7,21.9,30.80,NNW,347,0.0,2.0,32,-99.99,,,-99.99,meteobridge,2015-01-25 00:43:00,
2015-01-24 16:48:00,50.4,22.3,30.80,NNW,344,0.0,0.9,33,-99.99,,,-99.99,meteobridge,2015-01-25 00:48:00,
2015-01-24 16:53:00,50.2,22.8,30.80,NNW,343,0.0,0.9,34,-99.99,,,-99.99,meteobridge,2015-01-25 00:53:00,
2015-01-24 16:58:00,49.6,23.2,30.80,NNW,343,0.0,0.0,35,-99.99,,,-99.99,meteobridge,2015-01-25 00:58:00,
2015-01-24 17:04:00,49.3,22.8,30.80,NNW,343,0.0,0.0,35,-99.99,,,-99.99,meteobridge,2015-01-25 01:04:00,
2015-01-24 17:09:00,48.7,22.3,30.81,North,359,0.0,0.9,35,-99.99,,,-99.99,meteobridge,2015-01-25 01:09:00,
2015-01-24 17:14:00,48.4,23.4,30.81,North,354,0.0,0.0,37,-99.99,,,-99.99,meteobridge,2015-01-25 01:14:00,
2015-01-24 17:19:00,48.0,23.0,30.81,NNW,346,0.0,0.0,37,-99.99,,,-99.99,meteobridge,2015-01-25 01:19:00,
2015-01-24 17:24:00,47.7,22.6,30.82,NNW,340,0.0,0.9,37,-99.99,,,-99.99,meteobridge,2015-01-25 01:24:00,
2015-01-24 17:29:00,47.3,22.3,30.82,NNW,337,0.0,0.0,37,-99.99,,,-99.99,meteobridge,2015-01-25 01:29:00,
2015-01-24 17:34:00,46.9,22.6,30.82,NNW,342,0.0,0.0,38,-99.99,,,-99.99,meteobridge,2015-01-25 01:34:00,
2015-01-24 17:39:00,46.8,22.5,30.83,North,352,0.0,2.0,38,-99.99,,,-99.99,meteobridge,2015-01-25 01:39:00,
2015-01-24 17:44:00,46.6,22.3,30.83,NNW,342,0.0,0.0,38,-99.99,,,-99.99,meteobridge,2015-01-25 01:44:00,
2015-01-24 17:49:00,46.2,21.9,30.83,NNW,342,0.0,0.0,38,-99.99,,,-99.99,meteobridge,2015-01-25 01:49:00,
2015-01-24 17:54:00,46.0,22.5,30.84,NNW,342,0.0,0.0,39,-99.99,,,-99.99,meteobridge,2015-01-25 01:54:00,
2015-01-24 18:00:00,45.7,22.1,30.84,NNW,342,0.0,0.0,39,-99.99,,,-99.99,meteobridge,2015-01-25 02:00:00,
2015-01-24 18:05:00,45.3,21.7,30.84,NNW,339,0.0,0.0,39,-99.99,,,-99.99,meteobridge,2015-01-25 02:05:00,
2015-01-24 18:10:00,45.1,21.7,30.85,NNW,340,0.9,0.9,39,-99.99,,,-99.99,meteobridge,2015-01-25 02:10:00,
2015-01-24 18:15:00,44.8,21.9,30.85,NNW,337,0.0,0.0,40,-99.99,,,-99.99,meteobridge,2015-01-25 02:15:00,
2015-01-24 18:20:00,44.8,21.4,30.85,NNW,337,0.0,0.9,39,-99.99,,,-99.99,meteobridge,2015-01-25 02:20:00,
2015-01-24 18:26:00,44.6,21.2,30.85,NNW,339,0.0,0.0,39,-99.99,,,-99.99,meteobridge,2015-01-25 02:26:00,
2015-01-24 18:31:00,44.4,21.6,30.85,NNW,342,0.0,0.0,40,-99.99,,,-99.99,meteobridge,2015-01-25 02:31:00,
2015-01-24 18:36:00,44.2,20.8,30.85,NNW,342,0.0,0.0,39,-99.99,,,-99.99,meteobridge,2015-01-25 02:36:00,
2015-01-24 18:41:00,44.2,21.4,30.86,NNW,342,0.9,2.0,40,-99.99,,,-99.99,meteobridge,2015-01-25 02:41:00,
2015-01-24 18:47:00,43.9,21.2,30.86,NNW,337,0.9,0.9,40,-99.99,,,-99.99,meteobridge,2015-01-25 02:47:00,
2015-01-24 18:52:00,43.7,21.0,30.86,NNW,337,0.0,0.9,40,-99.99,,,-99.99,meteobridge,2015-01-25 02:52:00,
2015-01-24 18:57:00,43.5,20.8,30.86,NNW,336,2.0,2.0,40,-99.99,,,-99.99,meteobridge,2015-01-25 02:57:00,
2015-01-24 19:02:00,43.3,21.7,30.86,NNW,336,0.0,0.9,42,-99.99,,,-99.99,meteobridge,2015-01-25 03:02:00,
2015-01-24 19:07:00,43.0,21.4,30.86,NNW,337,2.0,2.0,42,-99.99,,,-99.99,meteobridge,2015-01-25 03:07:00,
2015-01-24 19:12:00,42.8,21.9,30.87,NNW,339,0.9,2.0,43,-99.99,,,-99.99,meteobridge,2015-01-25 03:12:00,
2015-01-24 19:17:00,42.6,21.2,30.87,NNW,342,0.0,0.0,42,-99.99,,,-99.99,meteobridge,2015-01-25 03:17:00,
2015-01-24 19:22:00,42.6,21.2,30.87,NNW,342,0.9,2.0,42,-99.99,,,-99.99,meteobridge,2015-01-25 03:22:00,
2015-01-24 19:27:00,42.4,21.0,30.87,NNW,343,0.0,0.0,42,-99.99,,,-99.99,meteobridge,2015-01-25 03:27:00,
2015-01-24 19:33:00,42.4,21.0,30.87,NNW,343,0.0,2.0,42,-99.99,,,-99.99,meteobridge,2015-01-25 03:33:00,
2015-01-24 19:38:00,42.3,20.8,30.87,NNW,343,0.0,0.0,42,-99.99,,,-99.99,meteobridge,2015-01-25 03:38:00,
2015-01-24 19:43:00,42.3,20.8,30.87,NNW,347,0.0,2.0,42,-99.99,,,-99.99,meteobridge,2015-01-25 03:43:00,
2015-01-24 19:48:00,42.1,20.7,30.87,NNW,337,0.0,0.0,42,-99.99,,,-99.99,meteobridge,2015-01-25 03:48:00,
2015-01-24 19:53:00,41.9,21.0,30.87,NNW,339,0.9,0.9,43,-99.99,,,-99.99,meteobridge,2015-01-25 03:53:00,
2015-01-24 19:58:00,41.7,20.8,30.87,NNW,337,0.0,0.9,43,-99.99,,,-99.99,meteobridge,2015-01-25 03:58:00,
2015-01-24 20:03:00,41.7,20.8,30.87,NNW,337,0.0,0.0,43,-99.99,,,-99.99,meteobridge,2015-01-25 04:03:00,
2015-01-24 20:09:00,41.4,21.0,30.87,NNW,339,0.0,0.0,44,-99.99,,,-99.99,meteobridge,2015-01-25 04:09:00,
2015-01-24 20:14:00,41.4,21.0,30.87,NNW,339,0.0,0.0,44,-99.99,,,-99.99,meteobridge,2015-01-25 04:14:00,
2015-01-24 20:19:00,41.4,21.6,30.87,NNW,339,0.0,0.0,45,-99.99,,,-99.99,meteobridge,2015-01-25 04:19:00,
2015-01-24 20:24:00,41.0,21.2,30.87,NNW,339,0.0,0.0,45,-99.99,,,-99.99,meteobridge,2015-01-25 04:24:00,
2015-01-24 20:29:00,40.8,21.2,30.87,NNW,339,0.0,0.0,45,-99.99,,,-99.99,meteobridge,2015-01-25 04:29:00,
2015-01-24 20:34:00,40.6,21.0,30.87,NNW,337,0.0,0.0,45,-99.99,,,-99.99,meteobridge,2015-01-25 04:34:00,
2015-01-24 20:40:00,40.6,21.6,30.84,NNW,339,0.0,0.0,46,-99.99,,,-99.99,meteobridge,2015-01-25 04:40:00,
2015-01-24 20:45:00,40.3,21.2,30.84,NNW,337,0.0,0.0,46,-99.99,,,-99.99,meteobridge,2015-01-25 04:45:00,
2015-01-24 20:50:00,40.1,20.5,30.84,NNW,339,0.0,0.0,45,-99.99,,,-99.99,meteobridge,2015-01-25 04:50:00,
2015-01-24 20:55:00,39.9,20.8,30.84,NNW,337,0.0,0.0,46,-99.99,,,-99.99,meteobridge,2015-01-25 04:55:00,
2015-01-24 21:01:00,39.9,20.8,30.84,NNW,339,0.0,0.0,46,-99.99,,,-99.99,meteobridge,2015-01-25 05:01:00,
2015-01-24 21:06:00,39.9,20.3,30.84,NNW,339,0.0,0.0,45,-99.99,,,-99.99,meteobridge,2015-01-25 05:06:00,
2015-01-24 21:11:00,39.7,21.2,30.85,NNW,337,0.0,0.0,47,-99.99,,,-99.99,meteobridge,2015-01-25 05:11:00,
2015-01-24 21:16:00,39.4,20.8,30.85,NNW,337,0.0,0.0,47,-99.99,,,-99.99,meteobridge,2015-01-25 05:16:00,
2015-01-24 21:21:00,39.2,20.7,30.85,NNW,339,0.0,0.0,47,-99.99,,,-99.99,meteobridge,2015-01-25 05:21:00,
2015-01-24 21:26:00,38.8,20.3,30.85,NNW,337,0.0,0.0,47,-99.99,,,-99.99,meteobridge,2015-01-25 05:26:00,
2015-01-24 21:31:00,38.8,20.3,30.85,NNW,337,0.0,0.0,47,-99.99,,,-99.99,meteobridge,2015-01-25 05:31:00,